Location: Spring Creek
(38.2870°N, 100.2160°W)
Time: 08:16:16
(UTC+00:00)

Cosmos 1953 - Pass Details

Date: 08 May 2021
Orbit: 540 x 555 km, 82.5° (Epoch: 21 June)

Event Time Altitude Azimuth Distance (km) Brightness Sun altitude
Rises 10:07:11 0° 338° (NNW) 2,705 6.1 -15.9°
Reaches altitude 10° 10:09:38 10° 325° (NW) 1,810 5.0 -15.5°
Maximum altitude 10:12:52 24° 270° (W) 1,142 3.5 -15.0°
Enters shadow 10:13:16 24° 260° (W) 1,155 3.4 -14.9°
